User: anonymous   Login
Location: C�an Torras
(41.5052°N, 1.9280°E)
Time: 07:25:31
(UTC+00:00)
Language:

CZ-4B R/B - Orbit

View from above orbital plane
View from above orbital plane
View from above satellite
View from above satellite

Ground track
Ground track

The orbit data is extracted from the following two-line orbital elements,

1 29093U 06015B   21108.83754222  .00006430  00000-0  11730-3 0  9998
2 29093  97.6354 297.8093 0048874 295.4145  64.2050 15.48492090833708
Epoch (UTC): 18 April 2021 20:06:03
Eccentricity: 0.0048874
inclination: 97.6354°
perigee height: 388 km
apogee height: 454 km
right ascension of ascending node: 297.8093°
argument of perigee: 295.4145°
revolutions per day: 15.48492090
mean anomaly at epoch: 64.2050°
orbit number at epoch: 83370

The dashed part of the orbit path shows where the satellite is in the earth's shadow,  

DLR